Temperature
21 21 20 20 19 19 21 22 23 22 22 22 22 21 21 20 20 19 19 19 19 19 19 19 18 18 18 18 18 18 18 18 18 18 18 18 18 18 18 18 18 18 18 18 18 18 18 18 18
21 21 20 20 19 20 21 22 22 22 22 22 22 21 20 19 19 19 19 19 19 19 19 19 19 18 18 18 18 18 18 18 18 18 18 18 18 18 18 18 18 18 18 18 18 18 18 18 18
21 21 20 19 20 21 22 22 22 23 23 23 22 21 20 19 19 20 19 19 19 19 19 19 19 18 18 18 18 18 18 18 18 18 18 18 18 18 18 18 18 18 18 18 18 18 18 18 18
21 21 21 20 22 22 22 22 23 23 23 22 21 20 20 19 20 20 20 19 19 19 19 19 19 19 19 19 18 18 18 18 18 18 18 18 18 18 18 18 18 18 18 18 18 18 18 18 18
21 21 20 21 22 23 23 23 23 23 22 22 21 20 19 19 20 20 20 19 19 19 19 19 19 19 19 19 18 18 18 18 18 18 18 18 18 18 18 18 18 18 18 18 18 18 18 18 18
22 21 21 21 23 24 24 24 23 23 22 22 21 20 19 19 20 20 19 19 19 19 19 19 19 19 19 18 18 18 18 18 18 18 18 18 18 18 18 18 18 18 18 18 18 18 18 18 18
22 20 21 22 23 24 24 24 23 22 22 22 21 19 19 19 20 20 19 19 19 19 19 19 19 19 19 18 18 18 18 18 18 18 18 18 18 18 18 18 18 18 18 18 18 18 18 18 18
23 20 22 22 23 24 24 24 24 23 22 22 22 20 19 19 19 19 19 19 19 19 19 19 19 19 19 18 18 18 18 18 18 18 18 18 18 18 18 18 18 18 18 18 18 18 18 18 18
23 21 21 23 23 24 24 24 24 23 22 22 22 22 21 20 19 19 19 19 19 19 19 19 19 19 19 19 18 18 18 18 18 18 18 18 18 18 18 18 18 18 18 18 18 18 18 18 18
23 21 23 24 24 24 24 24 24 23 22 21 21 21 21 20 20 19 19 19 19 19 19 19 19 19 19 18 18 18 18 18 18 18 18 18 18 18 18 18 18 18 18 18 18 18 18 18 17
22 22 24 25 25 25 24 24 24 23 22 22 21 21 20 20 20 20 20 20 20 19 19 19 19 19 19 19 18 18 18 18 18 18 18 18 18 18 18 18 18 18 18 18 18 18 18 18 17
23 24 25 26 26 26 25 24 23 23 23 24 23 22 21 20 20 20 20 20 20 20 19 19 19 19 19 19 19 18 18 18 18 18 18 18 18 18 18 18 18 18 18 18 18 18 18 18 18
24 25 26 26 26 25 25 24 24 23 24 23 22 21 21 20 20 20 20 20 20 20 19 19 19 19 19 19 19 18 18 18 18 18 18 18 18 18 18 18 18 18 18 18 18 18 18 18 18
26 25 25 26 26 25 24 23 23 23 23 22 21 21 21 21 21 20 20 20 20 20 20 19 19 19 19 19 19 19 18 18 18 18 18 18 18 18 18 18 18 18 18 18 18 18 18 18 18
26 25 25 25 25 25 25 24 23 23 22 21 21 21 21 21 21 21 21 21 20 20 20 20 19 19 19 19 19 18 18 18 18 18 18 18 18 18 18 18 18 18 18 18 18 17 18 18 18
25 24 24 25 25 25 24 23 22 23 22 21 20 20 20 21 21 21 21 21 21 20 20 20 19 19 19 19 19 19 18 18 18 18 18 18 18 18 18 18 18 18 18 17 18 17 17 17 17
24 24 24 25 25 24 24 23 22 22 22 21 20 20 20 20 21 21 21 21 21 20 20 20 19 19 19 19 19 18 18 18 18 18 18 18 18 18 18 18 18 18 17 17 17 17 17 17 17
24 24 24 24 25 24 23 22 22 22 21 21 21 21 20 21 21 21 21 21 21 21 20 20 20 19 19 19 19 18 18 18 18 18 18 18 18 18 18 18 18 18 17 17 17 17 17 17 17
25 25 24 24 25 24 23 22 22 21 21 21 21 21 21 21 22 22 21 21 21 20 20 20 20 20 19 19 19 18 18 18 18 18 18 18 18 18 18 18 18 18 18 17 17 17 17 17 17
24 24 24 24 24 24 23 22 22 21 21 21 21 21 21 21 22 22 21 21 21 21 20 20 20 20 19 19 19 19 19 18 18 18 18 18 18 18 18 18 18 18 18 17 17 17 17 17 17
24 24 24 24 24 24 24 23 22 22 22 22 22 22 22 22 22 22 22 21 21 21 21 20 20 20 19 19 19 19 18 18 18 18 18 18 18 18 18 18 18 18 18 18 17 17 17 17 17
24 24 24 24 23 22 23 22 22 21 21 21 21 21 21 22 22 22 22 22 21 21 21 21 20 20 19 19 19 19 19 19 19 19 18 18 18 18 18 18 18 18 18 18 18 17 17 17 17
24 24 24 24 22 21 22 22 21 21 21 21 21 22 22 22 22 22 22 22 22 22 21 21 20 20 20 19 19 19 19 19 19 19 18 18 18 18 18 18 18 18 18 18 18 17 17 17 17
24 23 22 19 20 21 22 21 22 20 21 21 22 22 22 22 22 22 22 22 22 22 21 21 21 20 20 19 19 19 19 19 19 19 18 18 18 18 18 18 18 18 18 18 17 17 17 17 17
23 21 21 21 20 20 21 21 21 22 22 22 22 23 23 23 22 22 22 22 22 22 22 21 21 21 20 20 19 19 19 19 19 19 18 18 18 18 18 18 18 18 17 18 17 17 17 17 17
22 21 21 21 20 20 20 20 21 22 22 23 23 23 23 23 23 22 22 22 22 22 22 21 21 21 20 20 20 20 19 19 19 19 19 18 18 18 18 18 18 17 17 17 17 17 17 17 17
22 20 20 19 20 20 20 20 21 21 21 21 22 22 23 23 23 23 22 22 22 22 22 22 22 21 21 20 20 20 19 19 19 19 19 18 18 18 18 18 18 17 17 17 17 17 17 17 17
22 19 17 18 19 20 20 20 21 22 21 21 20 21 22 23 23 23 22 22 22 22 22 22 22 21 21 21 20 20 20 19 19 19 19 18 18 18 18 18 17 17 17 17 17 17 17 17 17
21 20 17 16 17 19 20 20 21 21 21 20 20 22 22 23 23 22 22 22 22 22 22 21 21 21 21 21 20 20 20 19 19 19 19 18 18 18 18 18 17 17 17 17 17 17 17 16 16
21 20 18 19 18 17 18 20 22 20 20 20 21 22 23 23 23 22 22 21 21 21 21 21 21 21 21 21 20 20 20 19 19 19 19 18 18 18 18 17 17 17 17 17 17 17 16 16 16
Wind_Speed
9 7 3 1 3 5 3 3 1 2 3 2 5 5 6 4 2 3 1 6 7 7 8 12 13 14 14 14 14 14 14 15 15 15 14 14 13 13 14 14 14 14 15 16 16 16 16 16 16
6 5 1 2 4 3 3 2 3 3 4 5 6 5 6 5 4 5 3 5 8 8 9 11 13 14 14 13 13 13 13 13 14 14 14 13 13 12 13 13 14 14 15 15 15 15 16 15 15
6 3 1 3 3 2 1 1 4 5 5 4 4 5 4 3 4 4 4 8 8 7 9 12 14 14 13 13 12 12 12 12 12 13 13 13 12 12 12 12 13 14 14 15 15 15 15 15 14
3 1 2 4 3 1 3 3 5 6 4 5 5 5 4 3 4 5 8 9 8 6 8 11 13 13 13 12 12 12 11 11 11 11 11 11 11 11 11 12 12 13 13 14 14 14 14 13 13
1 2 5 4 3 2 2 5 4 4 3 4 5 5 4 4 8 11 10 9 8 6 7 10 12 12 12 12 11 11 11 11 10 10 10 10 10 10 11 11 11 12 12 13 13 12 12 12 12
2 3 4 2 3 2 3 4 4 6 5 5 5 5 3 4 8 9 9 8 6 6 6 8 11 11 11 11 11 11 10 10 10 10 9 9 9 9 11 11 11 11 12 12 11 11 11 11 10
3 3 2 0 1 1 2 3 4 5 5 4 5 5 3 4 7 8 8 7 6 5 5 5 7 9 10 10 10 10 10 10 9 9 9 8 8 8 9 10 10 11 11 11 11 10 10 9 9
4 4 2 0 1 1 3 4 3 5 4 5 4 7 6 7 9 9 8 6 5 5 4 3 4 6 6 8 8 9 9 9 8 8 7 7 6 6 9 10 10 10 10 10 10 9 8 7 7
3 4 1 3 4 3 4 4 3 4 6 4 3 4 7 14 13 10 7 5 4 4 3 3 3 4 5 5 6 7 7 7 7 6 6 6 5 6 7 8 9 9 9 9 8 7 7 6 6
3 2 4 5 5 5 5 5 6 5 5 3 6 8 13 14 13 12 10 8 6 5 3 3 3 3 4 4 4 4 4 5 5 5 5 5 5 6 6 7 7 7 7 7 6 6 5 4 4
3 4 4 3 4 5 6 4 4 8 4 6 10 15 16 14 12 11 10 8 7 6 5 4 3 3 3 2 3 3 4 4 4 5 5 5 5 4 4 3 3 3 4 3 3 3 3 3 3
3 4 3 2 4 6 6 5 4 4 4 7 14 18 16 14 12 11 11 9 7 6 5 4 4 3 3 3 2 3 3 3 3 4 5 5 3 3 2 2 2 2 2 2 2 1 2 2 2
3 2 1 1 4 6 7 5 4 1 4 12 15 16 15 13 10 9 8 8 7 7 7 6 5 4 3 3 2 3 3 3 4 4 5 5 4 2 2 2 2 2 2 2 1 1 1 1 1
2 0 1 2 4 4 7 3 3 2 9 13 15 14 13 13 11 8 8 9 9 9 8 6 6 5 4 4 3 2 3 3 4 4 5 6 5 4 3 2 2 1 1 1 1 1 1 0 0
1 3 4 2 3 3 6 2 2 5 12 13 13 12 12 11 10 11 11 11 10 9 8 7 7 6 5 5 4 3 4 4 3 4 6 6 6 5 4 2 1 1 1 1 1 0 1 1 1
4 4 2 2 2 3 6 4 3 8 13 12 11 11 11 10 10 10 10 9 9 8 8 8 8 7 6 5 4 3 4 4 4 5 5 5 6 5 4 3 2 2 1 1 1 1 1 0 0
4 1 2 3 1 3 4 5 3 9 12 12 12 11 11 10 9 9 9 10 9 9 8 8 7 7 6 5 4 3 3 4 4 5 5 5 6 6 5 3 3 3 2 1 2 2 2 1 0
3 2 2 4 2 4 4 5 4 10 12 12 11 10 10 11 12 10 9 9 8 8 8 8 7 7 6 4 3 2 2 2 3 4 5 6 6 6 5 4 3 3 2 2 2 2 1 1 1
4 3 4 5 3 4 5 5 6 10 10 11 11 12 12 12 9 8 9 9 9 8 8 9 8 7 6 4 4 3 3 2 2 3 5 6 6 6 5 3 3 3 3 3 3 2 2 1 1
3 3 4 3 1 3 3 4 5 10 14 13 14 14 13 10 8 10 10 10 10 10 9 9 9 8 7 6 4 3 3 2 2 2 3 5 5 5 5 4 4 3 3 3 3 3 2 1 2
3 5 5 3 1 2 2 4 3 5 8 9 9 9 10 13 13 12 11 11 11 11 11 11 10 8 8 6 4 3 3 2 2 1 1 2 4 5 5 4 4 3 4 3 4 4 4 3 2
5 6 5 4 3 2 2 3 7 5 7 11 12 11 12 12 11 11 12 12 12 13 11 10 9 8 7 7 6 6 5 4 4 3 3 2 3 4 5 5 4 4 3 3 4 4 4 4 3
6 1 3 2 3 0 0 3 7 2 7 13 15 15 14 13 14 14 14 14 13 13 12 10 9 8 7 7 8 7 5 4 3 2 3 2 2 3 3 4 4 3 3 3 3 3 4 4 4
4 6 7 6 5 1 5 5 7 6 9 9 12 14 14 14 14 14 13 11 11 11 11 10 9 8 8 8 7 7 7 6 5 4 3 2 1 2 3 3 3 4 3 4 4 4 4 4 4
5 6 4 4 3 6 3 4 9 8 7 9 11 12 12 12 13 13 14 13 13 13 13 12 11 10 9 9 8 8 8 7 7 6 5 4 3 2 3 3 3 3 4 4 3 4 4 5 5
5 8 8 6 6 5 1 7 8 6 5 5 7 7 6 8 11 13 15 15 15 15 14 13 13 11 10 10 9 8 7 6 6 6 5 5 4 4 3 3 3 3 4 4 3 3 4 4 5
6 4 7 7 3 2 6 7 9 4 3 2 2 3 5 8 10 11 13 14 15 15 14 14 13 11 10 10 9 8 7 7 6 5 5 4 4 3 3 3 3 3 3 3 3 3 3 3 4
5 8 6 6 5 4 6 5 6 6 5 3 2 2 4 5 8 10 11 13 13 13 12 12 12 12 10 10 10 9 8 7 6 6 6 5 4 3 3 3 3 3 3 3 3 2 2 3 3
3 4 5 4 5 6 4 8 7 9 7 6 5 5 4 5 7 9 9 11 11 10 10 11 10 9 9 9 8 7 7 7 6 6 6 5 4 4 4 4 4 4 3 3 3 3 3 3 3
4 6 7 5 4 5 5 8 6 6 6 5 5 4 3 4 5 7 8 8 9 9 10 10 10 10 10 9 8 8 7 6 6 6 5 5 5 4 4 4 3 3 3 3 4 4 4 4 3
Wind_Direction
152 147 151 131 51 45 27 359 88 79 65 61 86 85 93 79 94 121 97 123 121 122 136 137 132 128 126 122 120 118 118 117 116 116 118 118 120 120 121 124 125 125 125 125 124 122 122 122 122
149 160 182 57 69 53 355 5 71 82 121 109 77 71 71 63 67 103 115 125 124 131 135 136 131 129 127 124 123 121 121 119 118 118 118 119 120 122 121 123 125 125 126 127 127 125 124 124 124
166 195 87 66 78 139 158 91 110 98 101 83 73 58 68 88 108 125 134 127 118 125 131 137 135 133 131 128 126 124 123 121 121 120 119 119 121 124 123 123 126 127 128 129 129 128 127 127 127
160 75 55 58 38 245 175 156 132 116 74 61 88 69 58 64 125 128 124 122 119 121 134 140 139 136 134 132 130 127 125 123 122 121 122 123 123 125 127 127 129 130 131 132 132 130 130 130 131
101 72 46 29 355 350 123 147 133 107 91 77 88 83 50 30 97 114 121 125 125 121 132 138 138 137 135 134 133 132 128 127 126 125 124 125 126 128 132 131 133 134 134 133 133 134 134 134 134
61 59 58 22 352 32 100 130 112 96 97 99 98 95 65 98 112 123 122 122 122 127 134 137 140 139 139 138 137 136 134 132 130 129 128 128 128 131 136 136 137 137 136 136 136 136 137 139 139
97 77 78 20 11 56 154 129 124 123 118 129 121 102 108 134 130 123 115 112 110 116 123 130 137 140 142 141 140 141 138 136 132 130 129 129 133 137 142 143 142 141 141 141 139 140 140 141 142
127 96 53 336 177 216 157 133 128 123 119 121 117 134 161 166 136 117 106 104 107 108 112 119 121 129 137 141 144 144 141 137 135 133 132 132 135 140 147 145 144 145 145 145 144 144 143 142 141
116 74 158 210 185 205 158 133 129 106 114 118 113 142 148 139 132 124 119 115 122 128 115 122 121 128 133 141 151 149 145 142 140 139 135 125 108 117 131 137 144 146 148 147 145 141 140 140 141
103 130 229 211 185 174 163 149 146 122 119 108 91 102 125 137 143 148 154 158 162 164 159 146 145 148 149 157 144 137 134 135 132 129 124 116 108 110 121 129 137 140 141 140 139 134 132 129 135
156 198 239 237 197 153 146 144 135 134 168 182 156 144 144 148 156 163 170 173 177 174 173 167 161 156 154 152 137 129 122 124 128 133 129 122 114 110 107 110 116 122 129 121 115 111 118 127 147
182 249 234 221 152 140 141 136 128 167 208 167 154 149 152 160 169 176 179 181 175 173 182 174 166 158 156 149 143 142 139 141 148 152 148 136 123 112 111 117 114 113 125 120 105 103 117 120 147
206 271 294 221 127 130 114 121 135 167 119 129 140 147 158 169 176 182 181 178 176 183 186 179 169 169 161 151 169 160 164 169 172 169 168 159 148 142 139 140 143 145 146 141 131 125 124 109 140
240 55 21 75 111 127 120 113 115 163 134 136 149 161 170 177 179 175 177 183 188 192 190 181 177 180 167 164 169 170 175 179 172 177 182 176 171 165 155 149 152 173 178 181 173 180 142 117 146
45 46 27 46 102 123 109 69 196 162 145 150 162 170 177 184 184 187 188 189 192 193 187 182 185 179 174 175 181 181 183 179 178 189 190 184 181 177 172 157 169 212 200 174 153 97 96 132 139
50 55 19 306 100 122 129 227 213 156 153 162 170 177 182 190 195 196 190 186 189 186 184 187 190 181 183 182 180 178 182 184 191 192 188 191 195 189 178 169 187 203 167 146 136 125 114 127 161
37 59 264 291 181 141 162 229 206 163 165 173 178 184 189 193 201 200 194 187 184 184 181 183 185 182 185 181 173 171 175 183 191 189 188 196 195 187 181 186 197 188 165 162 172 143 152 170 192
230 237 257 250 228 149 188 234 195 178 179 184 183 188 194 199 206 198 193 188 180 178 179 180 182 182 173 160 146 136 145 168 181 188 195 196 194 189 188 193 190 177 162 171 169 158 155 165 173
184 199 246 252 219 165 208 229 207 184 190 192 193 195 201 208 206 191 186 184 176 175 177 182 183 182 169 164 168 169 187 187 182 193 199 198 196 191 187 193 182 176 180 186 175 161 165 186 145
191 222 251 278 206 171 226 259 226 195 204 202 200 202 203 203 198 192 186 182 184 184 185 186 187 183 182 183 179 176 167 172 184 189 190 201 198 193 193 189 192 186 182 182 179 168 166 190 173
219 201 219 213 16 37 87 316 241 222 216 218 216 209 204 204 202 195 189 189 188 190 193 195 193 187 184 174 151 132 112 101 136 171 195 204 195 191 191 190 190 188 187 197 199 189 185 196 202
252 226 199 178 129 268 147 259 269 222 216 219 222 215 211 209 203 196 192 191 193 197 195 193 189 187 183 171 166 163 169 182 193 188 189 185 185 189 193 195 193 193 193 200 209 199 195 187 203
219 196 154 147 149 86 343 194 280 207 226 230 224 220 218 209 202 197 196 195 195 192 190 189 184 187 182 174 175 173 179 186 168 151 158 175 179 194 199 194 188 196 201 206 203 191 195 200 203
148 69 55 51 78 241 225 186 266 226 221 229 223 222 220 210 204 200 197 190 188 184 184 182 181 189 184 178 179 180 180 174 162 167 176 186 188 203 209 197 194 203 206 209 210 202 198 204 204
99 94 34 353 358 246 236 196 246 248 232 224 225 225 221 209 202 197 192 188 186 185 186 184 183 189 186 182 187 189 185 181 184 187 190 191 202 216 222 210 204 211 213 212 204 201 208 207 205
175 145 163 199 221 263 252 225 252 266 257 232 229 223 212 205 199 197 194 189 187 188 187 184 186 190 187 187 192 191 187 190 196 193 190 197 208 219 217 206 209 217 215 212 200 203 215 211 214
152 181 169 146 170 236 268 277 299 294 303 284 249 211 207 205 198 194 191 188 185 187 189 187 186 188 189 190 189 190 191 193 194 189 189 197 205 211 201 197 199 214 215 207 196 211 219 209 218
142 143 105 132 160 234 275 263 246 262 263 274 266 230 226 203 194 189 189 189 188 188 185 182 184 188 189 190 193 196 194 195 192 186 194 200 204 204 190 194 201 209 214 206 200 217 224 213 227
110 107 113 127 157 169 241 264 227 219 223 227 238 232 216 199 196 191 190 188 184 177 173 176 179 181 186 189 187 185 187 188 185 190 197 199 197 193 198 202 206 205 209 209 205 216 219 217 234
166 164 149 163 221 187 197 260 267 224 224 223 240 242 228 200 194 183 173 170 171 173 173 174 178 185 191 186 180 184 181 178 183 192 195 191 193 193 196 198 203 212 216 213 211 223 228 223 229
Height
1488 1488 1489 1491 1493 1501 1503 1497 1492 1492 1493 1493 1494 1495 1497 1499 1503 1508 1505 1504 1506 1507 1508 1510 1511 1513 1514 1516 1517 1519 1520 1521 1522 1523 1524 1526 1527 1528 1529 1531 1532 1534 1536 1537 1540 1542 1544 1546 1547
1488 1489 1491 1492 1499 1512 1507 1495 1494 1492 1493 1494 1495 1497 1498 1500 1501 1503 1504 1506 1508 1510 1511 1513 1514 1515 1517 1518 1520 1521 1522 1523 1524 1526 1527 1528 1529 1530 1531 1533 1534 1536 1538 1539 1541 1543 1545 1547 1549
1489 1490 1492 1494 1502 1509 1504 1496 1494 1494 1495 1495 1497 1499 1500 1502 1503 1504 1506 1508 1510 1512 1513 1515 1516 1518 1519 1521 1522 1523 1524 1526 1527 1528 1529 1530 1531 1532 1533 1535 1536 1538 1540 1541 1544 1545 1547 1549 1551
1490 1492 1493 1499 1502 1499 1496 1494 1494 1495 1496 1497 1498 1501 1503 1505 1506 1507 1508 1510 1512 1514 1516 1517 1519 1520 1522 1523 1524 1525 1526 1528 1529 1530 1531 1532 1533 1534 1535 1536 1538 1540 1541 1543 1545 1547 1549 1551 1553
1491 1492 1498 1505 1501 1495 1493 1494 1494 1495 1497 1499 1499 1503 1506 1507 1508 1509 1511 1513 1515 1516 1518 1520 1521 1522 1524 1525 1526 1527 1528 1529 1530 1531 1532 1533 1534 1535 1537 1538 1540 1541 1543 1545 1547 1549 1551 1553 1555
1493 1494 1506 1511 1503 1495 1494 1494 1495 1497 1498 1500 1501 1504 1508 1509 1510 1512 1514 1516 1517 1519 1520 1522 1523 1525 1526 1527 1528 1529 1530 1531 1532 1533 1534 1535 1536 1536 1538 1540 1541 1543 1545 1547 1549 1551 1553 1554 1556
1494 1498 1507 1506 1504 1499 1496 1496 1497 1498 1500 1501 1502 1505 1508 1511 1513 1514 1516 1518 1519 1521 1523 1524 1526 1527 1528 1529 1530 1531 1532 1533 1534 1535 1535 1536 1536 1537 1539 1541 1543 1545 1546 1548 1550 1552 1554 1556 1558
1494 1499 1505 1505 1503 1500 1495 1497 1498 1499 1501 1503 1503 1505 1508 1511 1514 1516 1518 1520 1522 1523 1524 1526 1527 1528 1529 1530 1531 1533 1534 1534 1535 1536 1537 1537 1536 1536 1538 1542 1544 1546 1548 1550 1552 1554 1556 1558 1559
1494 1502 1508 1503 1501 1498 1495 1497 1499 1500 1501 1503 1504 1505 1507 1511 1514 1517 1519 1521 1523 1524 1526 1527 1528 1530 1531 1532 1533 1534 1535 1536 1536 1537 1538 1538 1537 1536 1538 1542 1545 1547 1549 1551 1553 1555 1557 1559 1560
1494 1504 1499 1493 1492 1493 1495 1496 1498 1501 1502 1504 1505 1507 1509 1511 1514 1517 1519 1521 1523 1525 1527 1528 1530 1531 1532 1533 1534 1535 1535 1536 1537 1538 1539 1540 1540 1539 1542 1545 1547 1549 1551 1553 1555 1557 1558 1560 1562
1494 1497 1491 1489 1489 1491 1494 1497 1498 1500 1503 1503 1503 1506 1510 1513 1515 1518 1520 1521 1523 1526 1528 1529 1531 1532 1533 1534 1535 1536 1536 1537 1538 1539 1540 1542 1542 1543 1545 1547 1549 1551 1553 1555 1556 1558 1560 1561 1562
1493 1490 1489 1488 1489 1491 1494 1497 1499 1500 1501 1501 1503 1506 1510 1513 1516 1518 1520 1522 1524 1526 1528 1530 1531 1533 1534 1535 1536 1536 1537 1538 1539 1540 1542 1543 1544 1546 1547 1549 1551 1552 1554 1556 1558 1559 1560 1562 1563
1492 1489 1488 1488 1489 1491 1494 1497 1499 1500 1501 1502 1505 1508 1511 1514 1516 1519 1521 1524 1525 1527 1529 1530 1532 1533 1535 1536 1537 1537 1538 1539 1540 1541 1542 1544 1546 1547 1549 1551 1552 1554 1556 1557 1559 1560 1561 1562 1563
1489 1489 1489 1489 1489 1492 1495 1498 1500 1501 1502 1503 1506 1509 1511 1514 1517 1519 1521 1523 1525 1527 1529 1531 1532 1534 1535 1536 1537 1538 1539 1540 1540 1541 1543 1545 1547 1548 1550 1552 1553 1555 1556 1558 1559 1560 1561 1562 1563
1489 1491 1491 1490 1491 1493 1495 1501 1500 1500 1502 1504 1507 1509 1512 1514 1517 1518 1520 1523 1525 1527 1529 1531 1533 1534 1536 1537 1538 1539 1540 1541 1541 1542 1544 1546 1547 1549 1551 1553 1554 1556 1557 1558 1559 1560 1561 1562 1563
1492 1498 1502 1494 1492 1494 1500 1508 1500 1500 1501 1504 1507 1510 1512 1514 1515 1518 1520 1522 1525 1527 1529 1531 1533 1534 1536 1537 1538 1539 1540 1541 1543 1544 1545 1547 1548 1550 1552 1553 1555 1556 1557 1558 1559 1560 1561 1562 1562
1502 1509 1506 1499 1493 1494 1499 1504 1498 1500 1501 1503 1506 1508 1510 1512 1514 1517 1519 1522 1524 1526 1529 1530 1532 1534 1536 1537 1539 1540 1541 1542 1544 1545 1546 1547 1549 1551 1552 1554 1555 1556 1557 1558 1559 1559 1560 1561 1562
1509 1508 1506 1503 1495 1496 1500 1501 1498 1499 1500 1502 1505 1507 1509 1510 1512 1515 1518 1521 1523 1525 1528 1530 1532 1533 1535 1537 1538 1540 1541 1542 1544 1545 1547 1548 1549 1551 1552 1553 1555 1556 1557 1557 1558 1559 1559 1560 1561
1498 1502 1505 1499 1492 1496 1499 1499 1497 1498 1500 1501 1503 1504 1505 1507 1510 1514 1516 1519 1522 1524 1526 1528 1530 1532 1534 1535 1537 1538 1540 1542 1543 1545 1546 1548 1549 1551 1552 1553 1554 1555 1556 1557 1557 1558 1558 1559 1560
1496 1502 1503 1497 1492 1495 1500 1499 1495 1496 1495 1495 1497 1499 1501 1505 1508 1511 1513 1517 1519 1521 1524 1526 1528 1530 1532 1534 1536 1538 1539 1541 1543 1544 1545 1547 1549 1550 1551 1552 1553 1554 1555 1555 1556 1557 1557 1558 1558
1496 1500 1499 1499 1496 1495 1500 1504 1498 1495 1495 1496 1496 1497 1500 1502 1504 1507 1510 1513 1516 1519 1522 1524 1526 1529 1531 1533 1535 1537 1538 1540 1541 1543 1544 1546 1547 1549 1550 1551 1552 1552 1553 1554 1554 1555 1555 1556 1557
1499 1489 1491 1495 1504 1512 1506 1520 1501 1495 1494 1493 1493 1494 1495 1497 1500 1503 1506 1510 1513 1516 1519 1522 1525 1527 1530 1532 1533 1535 1536 1537 1539 1542 1543 1545 1546 1548 1549 1550 1550 1551 1552 1552 1552 1553 1554 1554 1554
1489 1485 1489 1494 1504 1512 1510 1517 1507 1495 1495 1489 1486 1487 1489 1491 1495 1498 1501 1505 1509 1513 1516 1520 1522 1525 1527 1530 1531 1533 1535 1537 1539 1541 1542 1543 1545 1546 1547 1548 1549 1549 1550 1550 1550 1551 1551 1552 1552
1483 1489 1496 1505 1512 1523 1512 1517 1511 1497 1488 1482 1480 1481 1483 1486 1489 1493 1497 1501 1505 1509 1513 1517 1520 1522 1525 1527 1529 1531 1533 1535 1537 1539 1541 1542 1543 1545 1545 1546 1547 1547 1548 1548 1548 1549 1549 1549 1549
1486 1503 1522 1524 1532 1527 1510 1512 1505 1482 1477 1476 1475 1476 1478 1481 1484 1488 1492 1496 1500 1504 1508 1512 1516 1519 1522 1524 1526 1529 1531 1533 1535 1537 1539 1540 1542 1543 1543 1544 1544 1545 1545 1546 1546 1546 1546 1546 1547
1489 1498 1522 1532 1534 1524 1512 1512 1492 1476 1473 1472 1472 1472 1474 1477 1479 1483 1486 1490 1495 1500 1504 1508 1512 1516 1519 1521 1524 1526 1528 1531 1533 1535 1537 1538 1539 1540 1541 1542 1542 1543 1543 1543 1543 1543 1543 1543 1543
1489 1497 1497 1515 1520 1524 1517 1503 1486 1473 1471 1470 1469 1469 1470 1472 1475 1478 1482 1486 1491 1495 1500 1504 1508 1512 1515 1518 1521 1524 1526 1528 1530 1532 1534 1536 1537 1538 1539 1539 1539 1540 1541 1541 1541 1541 1540 1541 1541
1480 1490 1505 1516 1527 1529 1516 1507 1497 1478 1473 1470 1468 1468 1468 1470 1472 1475 1479 1482 1487 1491 1496 1500 1504 1508 1512 1515 1518 1521 1523 1525 1527 1529 1531 1533 1534 1535 1536 1537 1537 1537 1538 1538 1538 1538 1538 1538 1538
1486 1492 1501 1512 1514 1525 1525 1508 1476 1472 1469 1469 1467 1467 1467 1468 1470 1473 1476 1479 1484 1489 1493 1497 1501 1504 1508 1512 1514 1517 1520 1522 1524 1526 1528 1530 1531 1532 1533 1534 1534 1535 1535 1535 1535 1535 1535 1535 1535
1477 1485 1496 1507 1512 1516 1517 1501 1466 1466 1465 1466 1466 1466 1466 1468 1469 1471 1474 1478 1482 1486 1489 1494 1497 1501 1504 1508 1511 1514 1516 1519 1521 1523 1525 1527 1528 1529 1530 1531 1531 1532 1532 1532 1532 1532 1532 1532 1532